Tracking 20712 objects as of 29-May-2020
HD Live streaming from Space Station
objects crossing your sky now

FENGYUN 1C DEB

Track FENGYUN 1C DEB now!
10-day predictions


NORAD ID: 31038
Int'l Code: 1999-025BEG
Perigee: 702.6 km
Apogee: 840.2 km
Inclination: 99.0 °
Period: 100.1 minutes
Semi major axis: 7142 km
RCS: 0.0091 m2 (small)
Launch date: May 10, 1999
Source: People's Republic of China (PRC)
Launch site: Taiyaun Space Center, China (TSC)

Note: This is SATELLITE DEBRIS
aabbcc
Your satellite tracking list
Your tracking list is empty




NASA's NSSDC Master Catalog

Two Line Element Set (TLE):
1 31038U 99025BEG 20149.29716625  .00000158  00000-0  64940-4 0  9995
2 31038  99.0174  85.5396 0096289  77.7086 283.4861 14.38256455691227
Source of the keplerian elements: AFSPC